Location: Colonia Mina de C?rbuni
(46.1667°N, 22.7167°E)
Time: 02:46:28
(UTC+00:00)

Transit 2A Rocket - Visible Passes

Search period start: 22 April 2024 00:00
Search period end: 02 May 2024 00:00
Orbit: 587 x 907 km, 66.7° (Epoch: 21 April)

Date Brightness Start Highest point End Pass type
(mag) Time Alt. Az. Time Alt. Az. Time Alt. Az.
22 Apr 6.0 18:49:46 10° NW 18:55:13 50° WSW 19:00:42 11° S visible
23 Apr 5.4 18:05:41 10° NW 18:11:19 80° WSW 18:17:19 10° SSE visible
23 Apr 7.6 19:50:09 10° WNW 19:53:06 14° WSW 19:56:06 10° SW visible
24 Apr 7.2 19:04:57 10° WNW 19:09:29 24° WSW 19:14:09 10° SSW visible
25 Apr 6.5 18:20:27 10° NW 18:25:44 40° WSW 18:31:15 10° S visible
26 Apr 8.0 19:22:12 10° W 19:23:27 11° WSW 19:24:43 10° WSW visible
27 Apr 7.6 18:35:55 10° WNW 18:39:52 19° WSW 18:43:56 10° SSW visible
30 Apr 7.9 18:07:05 10° WNW 18:10:12 15° WSW 18:13:23 10° SW visible
